When you browse on this site, cookies collect data to enhance your experience and personalize the content and advertising you see.
Visit our Privacy Policy to learn more. By continuing to use the site, you agree to this use of cookies and data.

Hourly Weather Razgrad

Today, 13 July, Monday

Time Temperature Precipitation Wind Pressure Humidity
00:00 +18°C° 0 mm 3 mps 741 mmHg 74%
01:00 +18°C° 0 mm 3 mps 741 mmHg 75%
02:00 +18°C° 0 mm 2 mps 741 mmHg 76%
03:00 +17°C° 0 mm 2 mps 741 mmHg 78%
04:00 +16°C° 0 mm 2 mps 741 mmHg 79%
05:00 +16°C° 0 mm 2 mps 741 mmHg 81%
06:00 +16°C° 0 mm 2 mps 741 mmHg 80%
07:00 +16°C° 0 mm 3 mps 742 mmHg 79%
08:00 +16°C° 0 mm 3 mps 742 mmHg 78%
09:00 +16°C° 0 mm 3 mps 742 mmHg 75%
10:00 +16°C° 0 mm 3 mps 742 mmHg 72%
11:00 +17°C° 0 mm 3 mps 742 mmHg 69%
12:00 +18°C° 0 mm 4 mps 742 mmHg 65%
13:00 +19°C° 0 mm 4 mps 742 mmHg 60%
14:00 +20°C° 0 mm 4 mps 742 mmHg 56%
15:00 +20°C° 0 mm 4 mps 742 mmHg 58%
16:00 +20°C° 0 mm 3 mps 742 mmHg 59%
17:00 +20°C° 0 mm 3 mps 741 mmHg 60%
18:00 +19°C° 0 mm 2 mps 741 mmHg 66%
19:00 +17°C° 0 mm 2 mps 741 mmHg 73%
20:00 +15°C° 0 mm 1 mps 741 mmHg 79%
21:00 +15°C° 0 mm 1 mps 742 mmHg 81%
22:00 +14°C° 0 mm 1 mps 742 mmHg 82%
23:00 +13°C° 0 mm 0 mps 742 mmHg 84%

Tomorrow, 14 July, Tuesday

Time Temperature Precipitation Wind Pressure Humidity
00:00 +13°C° 0 mm 1 mps 742 mmHg 84%
01:00 +13°C° 0 mm 1 mps 742 mmHg 85%
02:00 +13°C° 0 mm 1 mps 742 mmHg 86%
03:00 +13°C° 0 mm 1 mps 742 mmHg 87%
04:00 +12°C° 0 mm 1 mps 742 mmHg 88%
05:00 +12°C° 0 mm 1 mps 742 mmHg 88%
06:00 +14°C° 0 mm 1 mps 742 mmHg 79%
07:00 +16°C° 0 mm 1 mps 743 mmHg 70%
08:00 +19°C° 0 mm 2 mps 743 mmHg 61%
09:00 +20°C° 0 mm 2 mps 743 mmHg 56%
10:00 +21°C° 0 mm 2 mps 742 mmHg 51%
11:00 +24°C° 0 mm 3 mps 742 mmHg 47%
12:00 +24°C° 0 mm 2 mps 742 mmHg 45%
13:00 +25°C° 0 mm 2 mps 742 mmHg 44%
14:00 +25°C° 0 mm 2 mps 741 mmHg 42%
15:00 +25°C° 0 mm 2 mps 741 mmHg 44%
16:00 +25°C° 0 mm 2 mps 741 mmHg 45%
17:00 +25°C° 0 mm 2 mps 741 mmHg 46%
18:00 +23°C° 0 mm 2 mps 741 mmHg 53%
19:00 +20°C° 0 mm 2 mps 741 mmHg 60%
20:00 +18°C° 0 mm 2 mps 741 mmHg 67%
21:00 +17°C° 0 mm 2 mps 741 mmHg 69%
22:00 +16°C° 0 mm 2 mps 741 mmHg 71%
23:00 +16°C° 0 mm 2 mps 742 mmHg 73%

Day after tomorrow, 15 July, Wednesday

Time Temperature Precipitation Wind Pressure Humidity
00:00 +15°C° 0 mm 1 mps 742 mmHg 76%
01:00 +15°C° 0 mm 1 mps 742 mmHg 78%
02:00 +14°C° 0 mm 1 mps 742 mmHg 81%
03:00 +14°C° 0 mm 1 mps 742 mmHg 81%
04:00 +14°C° 0 mm 1 mps 742 mmHg 80%
05:00 +14°C° 0 mm 1 mps 742 mmHg 80%
06:00 +16°C° 0 mm 1 mps 742 mmHg 72%
07:00 +20°C° 0 mm 1 mps 742 mmHg 63%
08:00 +22°C° 0 mm 1 mps 743 mmHg 54%
09:00 +24°C° 0 mm 2 mps 743 mmHg 49%
10:00 +25°C° 0 mm 3 mps 742 mmHg 44%
11:00 +26°C° 0 mm 3 mps 742 mmHg 39%
12:00 +27°C° 0 mm 3 mps 742 mmHg 38%
13:00 +27°C° 0 mm 3 mps 742 mmHg 37%
14:00 +28°C° 0 mm 3 mps 742 mmHg 35%
15:00 +28°C° 0 mm 2 mps 741 mmHg 36%
16:00 +28°C° 0 mm 2 mps 741 mmHg 37%
17:00 +28°C° 0 mm 2 mps 741 mmHg 38%
18:00 +26°C° 0 mm 2 mps 741 mmHg 46%
19:00 +23°C° 0 mm 2 mps 741 mmHg 54%
20:00 +20°C° 0 mm 3 mps 741 mmHg 63%
21:00 +19°C° 0 mm 3 mps 741 mmHg 66%
22:00 +18°C° 0 mm 2 mps 741 mmHg 70%
23:00 +17°C° 0 mm 2 mps 741 mmHg 74%

16 July, Thursday

Time Temperature Precipitation Wind Pressure Humidity
00:00 +17°C° 0 mm 2 mps 741 mmHg 74%
01:00 +16°C° 0 mm 2 mps 741 mmHg 75%
02:00 +16°C° 0 mm 2 mps 741 mmHg 75%
03:00 +16°C° 0 mm 2 mps 741 mmHg 74%
04:00 +16°C° 0 mm 1 mps 740 mmHg 73%
05:00 +16°C° 0 mm 1 mps 740 mmHg 72%
06:00 +19°C° 0 mm 1 mps 740 mmHg 65%
07:00 +21°C° 0 mm 1 mps 740 mmHg 58%
08:00 +24°C° 0 mm 1 mps 740 mmHg 52%
09:00 +25°C° 0 mm 2 mps 740 mmHg 47%
10:00 +26°C° 0 mm 2 mps 740 mmHg 43%
11:00 +27°C° 0 mm 2 mps 740 mmHg 38%
12:00 +28°C° 0 mm 2 mps 740 mmHg 37%
13:00 +28°C° 0 mm 2 mps 739 mmHg 36%
14:00 +29°C° 0 mm 2 mps 739 mmHg 36%
15:00 +29°C° 0 mm 2 mps 739 mmHg 37%
16:00 +29°C° 0 mm 2 mps 739 mmHg 38%
17:00 +28°C° 0 mm 2 mps 738 mmHg 39%
18:00 +26°C° 0 mm 2 mps 738 mmHg 45%
19:00 +24°C° 0 mm 2 mps 738 mmHg 52%
20:00 +21°C° 0 mm 2 mps 738 mmHg 58%
21:00 +20°C° 0 mm 2 mps 739 mmHg 65%
22:00 +19°C° 0 mm 2 mps 739 mmHg 71%
23:00 +18°C° 0 mm 2 mps 739 mmHg 78%

17 July, Friday

Time Temperature Precipitation Wind Pressure Humidity
00:00 +18°C° 0 mm 2 mps 739 mmHg 78%
01:00 +17°C° 0 mm 2 mps 739 mmHg 79%
02:00 +18°C° 0 mm 1 mps 739 mmHg 79%
03:00 +18°C° 0 mm 1 mps 738 mmHg 79%
04:00 +18°C° 0 mm 1 mps 738 mmHg 78%
05:00 +18°C° 0 mm 1 mps 738 mmHg 77%
06:00 +20°C° 0 mm 1 mps 738 mmHg 70%
07:00 +22°C° 0 mm 1 mps 739 mmHg 63%
08:00 +24°C° 0 mm 1 mps 739 mmHg 56%
09:00 +26°C° 0 mm 2 mps 739 mmHg 50%
10:00 +27°C° 0 mm 2 mps 739 mmHg 45%
11:00 +28°C° 0 mm 3 mps 739 mmHg 39%
12:00 +29°C° 0 mm 3 mps 739 mmHg 37%
13:00 +29°C° 0 mm 3 mps 738 mmHg 36%
14:00 +30°C° 0 mm 3 mps 738 mmHg 34%
15:00 +30°C° 0 mm 4 mps 738 mmHg 36%
16:00 +29°C° 0 mm 4 mps 738 mmHg 38%
17:00 +29°C° 0 mm 4 mps 737 mmHg 40%
18:00 +27°C° 0 mm 4 mps 737 mmHg 47%
19:00 +25°C° 0 mm 3 mps 737 mmHg 53%
20:00 +21°C° 0 mm 3 mps 737 mmHg 60%
21:00 +20°C° 0 mm 3 mps 738 mmHg 64%
22:00 +19°C° 0 mm 2 mps 738 mmHg 67%
23:00 +18°C° 0 mm 2 mps 738 mmHg 71%

18 July, Saturday

Time Temperature Precipitation Wind Pressure Humidity
00:00 +18°C° 0 mm 2 mps 738 mmHg 73%
01:00 +18°C° 0 mm 1 mps 738 mmHg 76%
02:00 +18°C° 0 mm 1 mps 738 mmHg 78%
03:00 +18°C° 0 mm 1 mps 738 mmHg 81%
04:00 +16°C° 0 mm 1 mps 738 mmHg 84%
05:00 +16°C° 0 mm 1 mps 738 mmHg 87%
06:00 +19°C° 0 mm 1 mps 738 mmHg 81%
07:00 +20°C° 0 mm 2 mps 738 mmHg 74%
08:00 +24°C° 0 mm 2 mps 738 mmHg 68%
09:00 +25°C° 0 mm 3 mps 738 mmHg 61%
10:00 +27°C° 0 mm 4 mps 738 mmHg 53%
11:00 +29°C° 0 mm 5 mps 738 mmHg 46%
12:00 +29°C° 0 mm 5 mps 738 mmHg 46%
13:00 +29°C° 0 mm 4 mps 737 mmHg 46%
14:00 +29°C° 0 mm 4 mps 737 mmHg 45%
15:00 +29°C° 0 mm 5 mps 737 mmHg 44%
16:00 +29°C° 0 mm 5 mps 737 mmHg 43%
17:00 +29°C° 0 mm 5 mps 736 mmHg 42%
18:00 +27°C° 0 mm 4 mps 736 mmHg 49%
19:00 +25°C° 0 mm 3 mps 736 mmHg 55%
20:00 +22°C° 0 mm 3 mps 736 mmHg 61%
21:00 +21°C° 0 mm 3 mps 736 mmHg 66%
22:00 +20°C° 0 mm 2 mps 736 mmHg 72%
23:00 +19°C° 0 mm 2 mps 737 mmHg 77%
Show more